DW2959 Murcia ES current weather conditions

sailwx.info

Last reported at 2014-Oct-22 05:38 UTC.
Time now 2014-Oct-22 06:19 UTC

Location: N 38°00' W 001°02'.
View on Google Maps.

See reports from other nearby stations

  
Tides and Currents Weather Stations Pressure Air Temp Water Temp Dewpoint Dewpoint Depression Visibility Wind Speed Wind Dir Waves Ship Positions
date/time (UTC)wind fromknots sea level pressurealtimeterstation pressurevisibilityair tempwater tempwave heightnotes
2014-Oct-22 05:38
2014-Oct-22 05:23
2014-Oct-22 05:08
2014-Oct-22 04:53
2014-Oct-22 04:38
2014-Oct-22 04:22
2014-Oct-22 04:07
2014-Oct-22 03:52
2014-Oct-22 03:37
2014-Oct-22 03:22
2014-Oct-22 03:07
2014-Oct-22 02:52
2014-Oct-22 02:37
2014-Oct-22 02:22
2014-Oct-22 02:07
2014-Oct-22 01:52
2014-Oct-22 01:37
2014-Oct-22 01:22 268 3 24.4
2014-Oct-22 01:07 246 2 24.4
2014-Oct-22 00:52 259 2 24.4
2014-Oct-22 00:37 265 3 23.3
2014-Oct-22 00:22 265 4 23.3
2014-Oct-22 00:07 271 4 23.9
2014-Oct-21 23:52 261 2 23.9
2014-Oct-21 23:37 237 1 23.3
2014-Oct-21 23:07 267 1 23.9
2014-Oct-21 22:51 267 2 23.9
2014-Oct-21 22:36 250 2 23.3
2014-Oct-21 22:21 258 2 22.8
2014-Oct-21 22:06 269 5 22.2
2014-Oct-21 21:51 263 3 22.8
2014-Oct-21 21:36 268 2 23.9
2014-Oct-21 21:21 266 3 23.9
2014-Oct-21 21:06 219 5 23.9
2014-Oct-21 20:51 214 4 23.3
2014-Oct-21 20:36 253 1 22.8
2014-Oct-21 20:21 186 0 22.2
2014-Oct-21 20:06 180 22.8
2014-Oct-21 19:21 180 23.9
2014-Oct-21 19:06 180 24.4
2014-Oct-21 18:51 180 24.4
2014-Oct-21 18:36 180 25.0
2014-Oct-21 18:21 180 25.6
2014-Oct-21 18:06 165 27.2
2014-Oct-21 17:36 165 0 27.2
2014-Oct-21 17:21 165 0 28.3
2014-Oct-21 17:06 165 30.6
2014-Oct-21 16:51 165 31.7
2014-Oct-21 16:36 165 31.7
2014-Oct-21 16:21 165 32.2
2014-Oct-21 16:06 165 0 32.2
2014-Oct-21 15:51 167 2 32.8
2014-Oct-21 15:35 147 0 33.9
2014-Oct-21 15:20 120 34.4
2014-Oct-21 15:05 120 33.9
2014-Oct-21 14:50 120 33.9
2014-Oct-21 14:35 120 0 33.9
2014-Oct-21 14:20 117 1 33.3
2014-Oct-21 14:05 207 33.3
2014-Oct-21 13:50 207 32.8
2014-Oct-21 13:35 208 0 32.2
2014-Oct-21 13:21 234 1 31.7
2014-Oct-21 13:05 221 0 31.7
2014-Oct-21 12:50 228 1 31.1
2014-Oct-21 12:35 240 3 30.6
2014-Oct-21 12:20 270 3 30.0
2014-Oct-21 12:05 215 3 30.0
2014-Oct-21 11:50 236 3 29.4
2014-Oct-21 11:35 244 3 28.9
2014-Oct-21 11:21 228 3 28.3
2014-Oct-21 11:05 258 3 27.8
2014-Oct-21 10:50 242 5 27.2
2014-Oct-21 10:35 243 4 26.7
2014-Oct-21 10:20 253 4 26.1
2014-Oct-21 10:04 261 3 25.0
2014-Oct-21 09:51 232 4 24.4
2014-Oct-21 09:34 262 5 23.3
2014-Oct-21 09:19 266 6 22.8
2014-Oct-21 09:04 276 5 21.7
2014-Oct-21 08:49 270 6 21.1
2014-Oct-21 08:34 267 5 20.0
2014-Oct-21 08:19 271 6 20.0
2014-Oct-21 08:05 258 6 19.4
2014-Oct-21 07:49 263 5 18.9
2014-Oct-21 07:34 259 5 18.3
2014-Oct-21 07:19 269 5 17.8
2014-Oct-21 07:04 267 3 18.3
2014-Oct-21 06:49 244 2 17.8
2014-Oct-21 06:34
2014-Oct-21 06:19
2014-Oct-21 06:04
2014-Oct-21 05:48
2014-Oct-21 05:33
2014-Oct-21 05:18
2014-Oct-21 05:03
2014-Oct-21 04:48
2014-Oct-21 04:33
2014-Oct-21 04:18
2014-Oct-21 04:03
2014-Oct-21 03:48
2014-Oct-21 03:33
2014-Oct-21 03:18
2014-Oct-21 03:03
2014-Oct-21 02:48
2014-Oct-21 02:33
2014-Oct-21 02:17
2014-Oct-21 02:02
2014-Oct-21 01:47
2014-Oct-21 01:32
2014-Oct-21 01:17 267 3 17.8
2014-Oct-21 01:02 267 2 17.8
2014-Oct-21 00:48 265 2 18.3
2014-Oct-21 00:33 265 0 18.3
2014-Oct-21 00:18 265 18.3
2014-Oct-21 00:03 262 4 18.9
2014-Oct-20 23:48 232 1 19.4
2014-Oct-20 23:33 232 4 18.9
2014-Oct-20 23:18 196 3 18.3
2014-Oct-20 23:03 059 17.2
2014-Oct-20 22:48 059 17.2
2014-Oct-20 22:33 090 17.8
2014-Oct-20 22:18 094 17.8
2014-Oct-20 22:03 094 17.8
2014-Oct-20 21:48 094 18.3
2014-Oct-20 21:33 094 18.3
2014-Oct-20 21:18 094 18.3
2014-Oct-20 21:03 094 18.9
2014-Oct-20 20:48 094 18.9
2014-Oct-20 20:33 094 18.9
2014-Oct-20 20:18 094 19.4
2014-Oct-20 20:03 094 19.4
2014-Oct-20 19:48 094 20.0
2014-Oct-20 19:32 094 20.6
2014-Oct-20 19:17 094 20.6
2014-Oct-20 19:02 094 21.1
2014-Oct-20 18:47 094 21.1
2014-Oct-20 18:32 094 21.7
2014-Oct-20 18:17 094 21.7
2014-Oct-20 18:02 094 2 21.7
2014-Oct-20 17:47 084 3 22.2
2014-Oct-20 17:32 095 3 22.8
2014-Oct-20 17:17 088 2 23.3
2014-Oct-20 17:02 090 2 23.9
2014-Oct-20 16:47 094 3 24.4
2014-Oct-20 16:32 080 2 25.0
2014-Oct-20 16:17 088 1 25.6
2014-Oct-20 16:02 072 2 25.6
2014-Oct-20 15:47 067 3 26.1
2014-Oct-20 15:32 079 2 26.7
2014-Oct-20 15:17 086 3 26.7
2014-Oct-20 15:02 079 3 27.2
2014-Oct-20 14:32 088 1 27.8
2014-Oct-20 14:17 064 3 27.8
2014-Oct-20 14:02 097 2 28.3
2014-Oct-20 13:47 058 0 28.3
2014-Oct-20 13:32 067 1 27.8
2014-Oct-20 13:17 069 1 27.8
2014-Oct-20 13:02 069 0 27.8
2014-Oct-20 12:46 062 1 27.2
2014-Oct-20 12:31 039 0 26.7
2014-Oct-20 12:16 044 1 26.7
2014-Oct-20 12:01 054 1 26.1
2014-Oct-20 11:46 055 2 26.1
2014-Oct-20 11:31 082 0 26.1
2014-Oct-20 11:16 150 25.6
2014-Oct-20 11:01 227 0 24.4
2014-Oct-20 10:46 227 1 23.9
2014-Oct-20 10:31 265 2 23.3
2014-Oct-20 10:16 273 3 22.8
2014-Oct-20 10:01 257 2 22.2
2014-Oct-20 09:47 263 3 21.7
2014-Oct-20 09:31 229 3 21.1
2014-Oct-20 09:16 281 4 20.6
2014-Oct-20 09:01 270 4 20.0
2014-Oct-20 08:46 261 4 19.4
2014-Oct-20 08:31 267 3 18.9
2014-Oct-20 08:16 231 2 18.9
2014-Oct-20 08:01 265 3 18.3
2014-Oct-20 07:46 266 3 18.3
2014-Oct-20 07:31 269 1 17.8
2014-Oct-20 07:16 250 2 17.8
2014-Oct-20 07:01 269 0 17.2
2014-Oct-20 06:46
2014-Oct-20 06:30
2014-Oct-20 06:15
2014-Oct-20 06:00